Regional Weather Roundup
Issued by NWS

Home | Current Version | Previous Version | Text Only | Print | Product List | Glossary Off
Versions: 1 2 3 4 5 6 7 8 9 10 11 12 13 14 15 16 17 18 19 20 21 22 23 24 25 26 27 28

000
ASUS45 KCYS 040810
RWRWY

WYOMING REGIONAL WEATHER ROUNDUP
NATIONAL WEATHER SERVICE CHEYENNE WY
200 AM MDT WED MAY 04 2016

NOTE:  "FAIR" INDICATES FEW OR NO CLOUDS BELOW 12,000 FEET
WITH NO SIGNIFICANT WEATHER AND/OR OBSTRUCTIONS TO VISIBILITY.

WYZ001-040900-
YELLOWSTONE NATIONAL PARK

CITY           SKY/WX    TMP DP  RH WIND       PRES   REMARKS
LK YELLOWSTONE   N/A     28  24  85 NW3       30.36R
W YELLOWSTONE  NOT AVBL

$$
WYZ002>013-054>058-071-098>099-040900-
NORTHERN WYOMING

CITY           SKY/WX    TMP DP  RH WIND       PRES   REMARKS
JACKSON        FAIR      36  28  75 N7        30.29S WCI  30
CODY           FAIR      54  30  40 SW9       30.17S
GREYBULL       FAIR      55  33  43 CALM      30.14S
WORLAND        FAIR      50  37  61 SE9       30.15S
SHERIDAN       FAIR      42  37  82 S3        30.13S
BUFFALO        FAIR      54  36  50 S9        30.18F
GILLETTE       FAIR      45  38  76 S10       30.16F
HULETT         FAIR      46  36  66 CALM      30.18S
NEWCASTLE      FAIR      46  34  61 NE5       30.19S

$$
WYZ014>020-022>026-101>103-040900-
CENTRAL WYOMING

CITY           SKY/WX    TMP DP  RH WIND       PRES   REMARKS
BIG PINEY      FAIR      33  24  69 NE3       30.31R
PINEDALE       FAIR      32  27  80 NW5       30.32S WCI  27
DUBOIS         FAIR      37  27  65 NW9       30.31S WCI  31
LANDER         FAIR      46  34  62 N8        30.22R
RIVERTON       FAIR      48  34  58 W5        30.23S
CASPER         FAIR      42  34  73 W7        30.23S
DOUGLAS        FAIR      40  36  86 N3        30.23S

$$
WYZ021-027>030-104>119-040900-
SOUTHERN WYOMING

CITY           SKY/WX    TMP DP  RH WIND       PRES   REMARKS
EVANSTON       FAIR      46  25  43 S7        30.29S
KEMMERER         N/A     39  27  60 NW12      30.31S WCI  32
FORT BRIDGER   SUNNY     43  28  56 SW9       30.32S
ROCK SPRINGS   FAIR      46  26  45 CALM      30.29R
DIXON          FAIR      41  30  65 E5        30.32S
RAWLINS        FAIR      36  30  79 CALM      30.30S
SARATOGA       FAIR      36  28  75 N5        30.32S WCI  32
LARAMIE        FAIR      31  29  92 CALM      30.31F
CHEYENNE       FAIR      41  33  73 W12       30.27S
TORRINGTON     FAIR      45  38  76 W5        30.18S
PINE BLUFFS    FAIR      37  36  93 W5        30.24F WCI  34

$$




USA.gov is the U.S. government's official web portal to all federal, state and local government web resources and services.